AirNav   Everest Fuels
 
 488 users online  

01MO Highway Patrol Troop C Headquarters Heliport
Town And Country, Missouri, USA

GOING TO TOWN AND COUNTRY?


FAA INFORMATION EFFECTIVE 21 MAY 2020

Location

FAA Identifier: 01MO
Lat/Long: 38-38-30.1890N 090-29-03.4330W
38-38.503150N 090-29.057217W
38.6417192,-90.4842869
(estimated)
Elevation: 575 ft. / 175 m (estimated)
Variation: 02E (1985)
From city: 2 miles W of TOWN AND COUNTRY, MO
Time zone: UTC -5 (UTC -6 during Standard Time)
Zip code: 63141

Heliport Operations

Heliport use: Private use. Permission required prior to landing
Control tower: no
ARTCC: KANSAS CITY CENTER
FSS: SAINT LOUIS FLIGHT SERVICE STATION
Attendance: CONTINUOUS
Wind indicator: yes
Segmented circle: no

Heliport Communications

UNICOM: 122.95
WX ASOS at SUS (8 nm W): 134.8 (314-890-7255)
WX ASOS at STL (8 nm NE): 125.025 (314-890-4790)
WX ASOS at CPS (16 nm E): PHONE 618-332-0001
WX ASOS at SET (17 nm N): 118.075 (636-250-4590)

Nearby radio navigation aids

VOR radial/distance  VOR name  Freq  Var
STLr179/13.1ST LOUIS VORTAC117.4001E
FTZr093/23.0FORISTELL VORTAC110.8005E
TOYr254/27.1TROY VORTAC116.0004E

 
NDB name  Hdg/Dist  Freq  Var  ID
EAVES127/3.622701WFZ ..-. --..
SNOOP090/13.232601WSU ... ..-
CIVIC MEMORIAL234/25.026301WCVM -.-. ...- --

Heliport Services

Airframe service: NONE
Powerplant service: NONE

Runway Information

Helipad H1

Dimensions: 75 x 75 ft. / 23 x 23 m
Surface: concrete
Latitude: 38-38.503167N
Longitude: 090-29.057167W
Elevation: 575.0 ft.
Traffic pattern: leftleft

Heliport Ownership and Management from official FAA records

Ownership: Privately-owned
Owner: CPT D E BUSCHMANN
599 SOUTH MASON ROAD
ST LOUIS, MO 63141
Phone 573-434-5500
Manager: SGT J W RHODUS
599 SOUTH MASON ROAD
ST LOUIS, MO 63141
Phone 573-340-4034

Heliport Operational Statistics

Aircraft based on the field: 1
Helicopters: 1
    

Additional Remarks

A52-H1 LGTD/MARKED-300' TWR & PATROL BLDG. SE OF PAD.
FOR CD CTC ST LOUIS APCH AT 314-890-1018.

Instrument Procedures

There are no published instrument procedures at 01MO.

Some nearby airports with instrument procedures:

1H0 - Creve Coeur Airport (5 nm N)
KSUS - Spirit of St Louis Airport (8 nm W)
KSTL - St Louis Lambert International Airport (8 nm NE)
KCPS - St Louis Downtown Airport (16 nm E)
KSET - St Charles County Smartt Airport (17 nm N)
 
Loc | Ops | Rwys | IFR | FBO | Links
Com | Nav | Svcs | Stats | Notes
Area around 01MO (Highway Patrol Troop C Headquarters Heliport)
 
Road maps at: MapQuest Bing Google
 
Aerial photo
No photo
 
Sectional chart

 
Airport distance calculator
Flying to Highway Patrol Troop C Headquarters Heliport? Find the distance to fly.

From to 01MO

Sunrise and sunset
Times for 27-May-2020
 Local
(UTC-5)
 Zulu
(UTC)
Morning civil twilight05:1110:11
Sunrise05:4210:42
Sunset20:1601:16
Evening civil twilight20:4701:47

Current date and time
Zulu (UTC)  27-May-2020 10:06:19
Local (UTC-5)  27-May-2020 05:06:19
 
METAR
KSUS 
8nm W 
270954Z AUTO 09004KT 10SM BKN009 OVC040 21/19 A2986 RMK AO2 RAE27 SLP104 P0002 T02060189
KSTL 
9nm NE 
270951Z 12007KT 9SM -RA OVC008 21/19 A2988 RMK AO2 SLP107 P0000 T02060189
KCPS 
16nm E 
270953Z AUTO 09003KT 10SM -RA SCT005 BKN009 OVC016 20/20 A2987 RMK AO2 SLP111 P0005 T02000200
KSET 
18nm N 
270954Z AUTO 09006KT 10SM BKN045 OVC055 21/19 A2987 RMK AO2 RAE43 SLP109 P0010 T02060194
TAF
KSUS 
8nm W 
270520Z 2706/2806 VRB04KT P6SM BKN040 OVC100 FM270800 VRB04KT P6SM VCSH OVC040 FM271000 VRB04KT P6SM VCSH OVC020 FM272000 13008KT P6SM VCTS OVC030CB FM272300 13007KT P6SM BKN045
KSTL 
9nm NE 
270811Z 2708/2812 15010KT 4SM -SHRA OVC030 FM271300 13007KT 5SM -SHRA OVC020 FM272000 13008KT P6SM VCTS OVC030CB FM272300 13007KT P6SM BKN045
KCPS 
16nm E 
270811Z 2708/2806 13007KT 6SM -SHRA OVC030 FM271100 14006KT 6SM -SHRA OVC015 FM271700 13007KT 4SM -SHRA OVC020 FM272000 13008KT P6SM VCTS OVC030CB FM272300 13007KT P6SM BKN045
NOTAMs
Click for the latest NOTAMs
NOTAMs are issued by the DoD/FAA and will open in a separate window not controlled by AirNav.

 

 
 

Would you like to see your business listed on this page?

 If your business provides an interesting product or service to pilots, flight crews, aircraft, or users of the Highway Patrol Troop C Headquarters Heliport, you should consider listing it here.  To start the listing process, click on the button below
 
Add a business
 

Other Pages about Highway Patrol Troop C Headquarters Heliport

Update a link
 
Copyright © AirNav, LLC. All rights reserved. Privacy Policy  Contact